Location: Pardubice
(50.0330°N, 15.7830°E)
Time: 09:41:57
(UTC+02:00)

Transit 4A - All Passes

Search period start: 07 October 2024 00:00
Search period end: 17 October 2024 00:00
Orbit: 865 x 977 km, 66.8° (Epoch: 06 October)

Date Brightness Start Highest point End Pass type
(mag) Time Alt. Az. Time Alt. Az. Time Alt. Az.
07 Oct - 01:18:56 10° W 01:23:57 27° NNW 01:29:07 10° NNE visible
07 Oct - 03:08:42 10° NW 03:12:31 17° N 03:16:24 10° NE visible
07 Oct - 04:56:20 10° NNW 05:01:13 23° NNE 05:06:11 10° ENE visible
07 Oct - 06:42:34 10° NNW 06:48:48 63° NE 06:55:08 10° SE daylight
07 Oct - 08:29:21 10° NW 08:34:52 33° WSW 08:40:26 10° S daylight
07 Oct - 21:54:42 10° S 21:59:46 30° ESE 22:04:57 10° NE night (unlit)
07 Oct - 23:39:51 10° SW 23:45:44 62° NW 23:51:50 10° NNE visible
08 Oct - 01:28:38 10° WNW 01:33:19 23° NNW 01:38:08 10° NNE visible
08 Oct - 03:18:11 10° NW 03:22:02 17° N 03:25:56 10° NE visible
08 Oct - 05:05:20 10° NNW 05:10:35 27° NNE 05:15:55 10° E visible
08 Oct - 06:51:33 10° NW 06:57:51 82° NE 07:04:16 10° SE daylight
08 Oct - 08:38:45 10° WNW 08:43:35 24° WSW 08:48:27 10° SSW daylight
08 Oct - 22:03:01 10° S 22:08:31 43° ESE 22:14:13 10° NE night (unlit)
08 Oct - 23:49:06 10° WSW 23:54:50 48° NW 00:00:47 10° NNE visible
09 Oct - 01:38:22 10° WNW 01:42:44 20° NNW 01:47:12 10° NNE visible
09 Oct - 03:27:32 10° NNW 03:31:33 17° N 03:35:37 10° NE visible
09 Oct - 05:14:17 10° NNW 05:19:53 33° NE 05:25:34 10° E visible
09 Oct - 07:00:32 10° NW 07:06:50 77° WSW 07:13:12 10° SSE daylight
09 Oct - 08:48:29 10° WNW 08:52:14 17° WSW 08:56:00 10° SW daylight
09 Oct - 20:30:58 10° ESE 20:32:20 11° E 20:33:42 10° E night (unlit)
09 Oct - 22:11:33 10° SSW 22:17:21 59° ESE 22:23:21 10° NE night (unlit)
09 Oct - 23:58:29 10° WSW 00:04:01 38° NW 00:09:45 10° NNE visible
10 Oct - 01:48:07 10° NW 01:52:13 18° NNW 01:56:23 10° NNE visible
10 Oct - 03:36:45 10° NNW 03:41:02 19° NNE 03:45:23 10° ENE visible
10 Oct - 05:23:13 10° NNW 05:29:07 41° NE 05:35:06 10° ESE visible
10 Oct - 07:09:35 10° NW 07:15:44 57° WSW 07:21:57 10° SSE daylight
10 Oct - 08:59:16 10° W 09:00:48 11° W 09:02:20 10° WSW daylight
10 Oct - 20:37:20 10° SE 20:40:53 17° ESE 20:44:30 10° ENE night (unlit)
10 Oct - 22:20:19 10° SSW 22:26:15 81° ESE 22:32:24 10° NE night (unlit)
11 Oct - 00:08:01 10° W 00:13:17 30° NNW 00:18:42 10° NNE visible
11 Oct - 01:57:48 10° NW 02:01:42 17° N 02:05:40 10° NNE visible
11 Oct - 03:45:50 10° NNW 03:50:29 21° NNE 03:55:11 10° ENE visible
11 Oct - 05:32:09 10° NNW 05:38:17 52° NE 05:44:30 10° ESE visible
11 Oct - 07:18:44 10° NW 07:24:35 41° WSW 07:30:29 10° S daylight
11 Oct - 20:44:55 10° SSE 20:49:31 24° ESE 20:54:12 10° ENE night (unlit)
11 Oct - 22:29:17 10° SW 22:35:14 76° NW 22:41:24 10° NE night (unlit)
12 Oct - 00:17:39 10° W 00:22:36 25° NNW 00:27:41 10° NNE visible
12 Oct - 02:07:23 10° NW 02:11:13 17° N 02:15:06 10° NE visible
12 Oct - 03:54:52 10° NNW 03:59:53 24° NNE 04:04:57 10° E visible
12 Oct - 05:41:06 10° NW 05:47:23 68° NE 05:53:44 10° SE visible
12 Oct - 07:27:59 10° NW 07:33:20 30° WSW 07:38:44 10° SSW daylight
12 Oct - 20:52:59 10° S 20:58:13 34° ESE 21:03:35 10° NE night (unlit)
12 Oct - 22:38:25 10° SW 22:44:18 58° NW 22:50:22 10° NNE visible
13 Oct - 00:27:21 10° WNW 00:31:58 22° NNW 00:36:42 10° NNE visible
13 Oct - 02:16:49 10° NW 02:20:43 17° N 02:24:41 10° NE visible
13 Oct - 04:03:50 10° NNW 04:09:13 29° NNE 04:14:41 10° E visible
13 Oct - 05:50:04 10° NW 05:56:24 88° NE 06:02:48 10° SE visible
13 Oct - 07:37:27 10° WNW 07:42:02 21° WSW 07:46:39 10° SSW daylight
13 Oct - 21:01:21 10° S 21:06:59 47° ESE 21:12:48 10° NE visible
13 Oct - 22:47:42 10° WSW 22:53:25 44° NW 22:59:19 10° NNE visible
14 Oct - 00:37:05 10° WNW 00:41:24 19° NNW 00:45:48 10° NNE visible
14 Oct - 02:26:07 10° NNW 02:30:14 18° N 02:34:23 10° NE visible
14 Oct - 04:12:48 10° NNW 04:18:30 35° NE 04:24:17 10° ESE visible
14 Oct - 05:59:05 10° NW 06:05:21 70° WSW 06:11:42 10° SSE visible
14 Oct - 07:47:20 10° WNW 07:50:39 15° WSW 07:54:00 10° SW daylight
14 Oct - 19:28:24 10° ESE 19:30:43 12° E 19:33:03 10° ENE visible
14 Oct - 21:09:58 10° SSW 21:15:50 65° ESE 21:21:55 10° NE visible
14 Oct - 22:57:09 10° WSW 23:02:37 35° NW 23:08:16 10° NNE night (unlit)
15 Oct - 00:46:49 10° NW 00:50:52 18° N 00:55:00 10° NNE visible
15 Oct - 02:35:17 10° NNW 02:39:42 20° NNE 02:44:10 10° ENE visible
15 Oct - 04:21:44 10° NNW 04:27:43 44° NE 04:33:46 10° ESE visible
15 Oct - 06:08:09 10° NW 06:14:14 52° WSW 06:20:23 10° S visible
15 Oct - 19:35:22 10° SE 19:39:17 19° ESE 19:43:18 10° ENE visible
15 Oct - 21:18:48 10° SSW 21:24:46 88° ESE 21:30:57 10° NE visible
15 Oct - 23:06:42 10° W 23:11:53 29° NNW 23:17:14 10° NNE visible
16 Oct - 00:56:28 10° NW 01:00:22 17° N 01:04:19 10° NE visible
16 Oct - 02:44:22 10° NNW 02:49:07 22° NNE 02:53:57 10° ENE visible
16 Oct - 04:30:39 10° NNW 04:36:51 56° NE 04:43:08 10° SE visible
16 Oct - 06:17:19 10° NW 06:23:03 38° WSW 06:28:49 10° S visible
16 Oct - 19:43:07 10° SSE 19:47:56 26° ESE 19:52:53 10° NE visible
16 Oct - 21:27:48 10° SW 21:33:45 70° NW 21:39:56 10° NE visible
16 Oct - 23:16:21 10° W 23:21:13 24° NNW 23:26:13 10° NNE visible
